| time (UTC) | temp F | wind direction | speed MPH | gust MPH | rain 1hr in | rain 24hr in | rain mn in | humidity % | barometer mb |
| 20260507230634 | 48 | 137 | 0.0 | 2.0 | 0.00 | 0.10 | 0.00 | 95 | 1016.4 |
| 20260507225636 | 48 | 116 | 0.0 | 1.0 | 0.00 | 0.14 | 0.00 | 95 | 1016.3 |
| 20260507224636 | 48 | 121 | 0.0 | 1.0 | 0.00 | 0.15 | 0.00 | 95 | 1016.4 |
| 20260507223635 | 48 | 134 | 0.0 | 1.0 | 0.00 | 0.17 | 0.00 | 95 | 1016.7 |
| 20260507220634 | 48 | 119 | 0.0 | 2.0 | 0.00 | 0.18 | 0.00 | 96 | 1016.4 |
| 20260507215636 | 48 | 138 | 0.0 | 1.0 | 0.00 | 0.18 | 0.18 | 97 | 1016.2 |
| 20260507214634 | 48 | 132 | 0.0 | 2.0 | 0.00 | 0.18 | 0.18 | 97 | 1016.3 |
| 20260507213634 | 49 | 133 | 0.0 | 0.0 | 0.00 | 0.18 | 0.18 | 97 | 1016.0 |
| 20260507212635 | 49 | 134 | 0.0 | 0.0 | 0.00 | 0.19 | 0.18 | 97 | 1016.3 |
| 20260507210636 | 49 | 133 | 0.0 | 0.0 | 0.00 | 0.19 | 0.18 | 97 | 1016.1 |
| 20260507204636 | 49 | 135 | 0.0 | 1.0 | 0.00 | 0.23 | 0.18 | 97 | 1016.0 |
| 20260507202637 | 49 | 82 | 0.0 | 2.0 | 0.00 | 0.28 | 0.18 | 97 | 1015.7 |
| 20260507201636 | 49 | 130 | 0.0 | 1.0 | 0.00 | 0.28 | 0.18 | 97 | 1015.9 |
| 20260507200647 | 49 | 149 | 0.0 | 1.0 | 0.00 | 0.28 | 0.18 | 97 | 1015.9 |
| 20260507195636 | 49 | 143 | 0.0 | 2.0 | 0.00 | 0.28 | 0.18 | 97 | 1015.7 |
| 20260507194634 | 49 | 151 | 0.0 | 2.0 | 0.00 | 0.28 | 0.18 | 97 | 1015.6 |
| 20260507193635 | 49 | 137 | 0.0 | 0.0 | 0.00 | 0.28 | 0.18 | 97 | 1015.7 |
| 20260507191636 | 49 | 132 | 0.0 | 1.0 | 0.00 | 0.28 | 0.18 | 97 | 1015.4 |
| 20260507190635 | 49 | 138 | 0.0 | 0.0 | 0.00 | 0.28 | 0.18 | 97 | 1015.3 |
| 20260507185634 | 50 | 136 | 0.0 | 1.0 | 0.00 | 0.28 | 0.18 | 96 | 1015.2 |
| 20260507183634 | 50 | 136 | 0.0 | 0.0 | 0.00 | 0.28 | 0.18 | 96 | 1015.2 |
| 20260507182635 | 50 | 149 | 0.0 | 1.0 | 0.00 | 0.28 | 0.18 | 96 | 1014.7 |
| 20260507181633 | 50 | 68 | 1.0 | 3.0 | 0.00 | 0.28 | 0.18 | 96 | 1014.8 |
| 20260507180637 | 50 | 136 | 0.0 | 1.0 | 0.00 | 0.28 | 0.18 | 96 | 1014.8 |
| 20260507174636 | 51 | 133 | 0.0 | 1.0 | 0.00 | 0.28 | 0.18 | 96 | 1014.4 |
| 20260507173634 | 51 | 130 | 0.0 | 2.0 | 0.00 | 0.28 | 0.18 | 96 | 1014.7 |
| 20260507172633 | 51 | 142 | 0.0 | 1.0 | 0.00 | 0.28 | 0.18 | 95 | 1014.3 |
| 20260507171637 | 51 | 142 | 0.0 | 0.0 | 0.00 | 0.28 | 0.18 | 95 | 1014.4 |
| 20260507170635 | 51 | 142 | 1.0 | 1.0 | 0.00 | 0.28 | 0.18 | 95 | 1014.1 |
| 20260507165635 | 51 | 141 | 0.0 | 1.0 | 0.00 | 0.28 | 0.18 | 95 | 1014.0 |
| 20260507164636 | 51 | 120 | 0.0 | 2.0 | 0.00 | 0.28 | 0.18 | 95 | 1013.9 |
| 20260507163636 | 51 | 127 | 0.0 | 3.0 | 0.00 | 0.28 | 0.18 | 95 | 1013.9 |
| 20260507162634 | 51 | 61 | 2.0 | 3.0 | 0.00 | 0.28 | 0.18 | 94 | 1013.5 |
| 20260507161635 | 51 | 142 | 1.0 | 2.0 | 0.00 | 0.28 | 0.18 | 94 | 1013.3 |
| 20260507160637 | 51 | 54 | 0.0 | 3.0 | 0.00 | 0.28 | 0.18 | 94 | 1013.7 |
| 20260507155635 | 52 | 133 | 0.0 | 2.0 | 0.00 | 0.28 | 0.18 | 94 | 1013.3 |
| 20260507154636 | 52 | 69 | 1.0 | 3.0 | 0.00 | 0.28 | 0.18 | 93 | 1013.7 |
| 20260507152648 | 53 | 136 | 0.0 | 2.0 | 0.00 | 0.28 | 0.18 | 92 | 1013.2 |
| 20260507151634 | 53 | 113 | 0.0 | 4.0 | 0.00 | 0.28 | 0.18 | 92 | 1013.6 |
| 20260507145634 | 53 | 113 | 1.0 | 4.0 | 0.00 | 0.28 | 0.18 | 92 | 1013.5 |
| 20260507144634 | 54 | 350 | 2.0 | 4.0 | 0.00 | 0.28 | 0.18 | 91 | 1013.2 |
| 20260507143634 | 54 | 323 | 1.0 | 3.0 | 0.00 | 0.28 | 0.18 | 91 | 1013.2 |
| 20260507142635 | 54 | 128 | 1.0 | 3.0 | 0.00 | 0.28 | 0.18 | 92 | 1013.3 |
| 20260507141635 | 54 | 132 | 1.0 | 4.0 | 0.00 | 0.28 | 0.18 | 92 | 1013.4 |
| 20260507135635 | 55 | 164 | 1.0 | 2.0 | 0.00 | 0.28 | 0.18 | 91 | 1013.7 |
| 20260507133636 | 55 | 74 | 1.0 | 3.0 | 0.00 | 0.28 | 0.18 | 91 | 1013.4 |
| 20260507132638 | 56 | 129 | 0.0 | 3.0 | 0.00 | 0.28 | 0.18 | 90 | 1013.2 |
| 20260507131634 | 56 | 4 | 1.0 | 2.0 | 0.00 | 0.28 | 0.18 | 90 | 1013.1 |
| 20260507130634 | 56 | 64 | 0.0 | 2.0 | 0.00 | 0.28 | 0.18 | 90 | 1013.0 |
| 20260507125635 | 57 | 137 | 0.0 | 2.0 | 0.00 | 0.28 | 0.18 | 90 | 1012.8 |
| 20260507124648 | 58 | 138 | 0.0 | 2.0 | 0.00 | 0.28 | 0.18 | 89 | 1013.1 |
| 20260507123633 | 58 | 150 | 0.0 | 1.0 | 0.00 | 0.28 | 0.18 | 90 | 1012.9 |
| 20260507121636 | 57 | 140 | 0.0 | 3.0 | 0.00 | 0.28 | 0.18 | 91 | 1012.9 |
| 20260507120636 | 56 | 115 | 0.0 | 2.0 | 0.00 | 0.28 | 0.18 | 92 | 1012.7 |
| 20260507115633 | 56 | 117 | 1.0 | 3.0 | 0.00 | 0.28 | 0.18 | 92 | 1012.9 |
| 20260507114634 | 55 | 133 | 0.0 | 1.0 | 0.00 | 0.28 | 0.18 | 93 | 1013.0 |
| 20260507113636 | 55 | 130 | 0.0 | 1.0 | 0.00 | 0.28 | 0.18 | 92 | 1013.1 |
| 20260507112635 | 55 | 127 | 0.0 | 1.0 | 0.00 | 0.28 | 0.18 | 92 | 1012.8 |
| 20260507111635 | 56 | 118 | 0.0 | 2.0 | 0.00 | 0.28 | 0.18 | 91 | 1012.5 |
| 20260507110634 | 56 | 88 | 0.0 | 1.0 | 0.00 | 0.28 | 0.18 | 93 | 1012.6 |
| 20260507105635 | 55 | 158 | 0.0 | 3.0 | 0.00 | 0.28 | 0.18 | 96 | 1012.6 |
| 20260507103638 | 54 | 122 | 0.0 | 1.0 | 0.00 | 0.28 | 0.18 | 99 | 1012.5 |
| 20260507102635 | 53 | 126 | 0.0 | 2.0 | 0.00 | 0.28 | 0.18 | 99 | 1012.5 |
| 20260507101636 | 53 | 117 | 0.0 | 1.0 | 0.00 | 0.28 | 0.18 | 99 | 1012.3 |
| 20260507100634 | 53 | 138 | 0.0 | 1.0 | 0.00 | 0.28 | 0.18 | 99 | 1012.1 |
| 20260507093636 | 52 | 95 | 0.0 | 2.0 | 0.00 | 0.28 | 0.18 | 99 | 1011.9 |
| 20260507092635 | 52 | 138 | 0.0 | 1.0 | 0.00 | 0.28 | 0.18 | 99 | 1011.6 |
| 20260507091637 | 51 | 143 | 0.0 | 1.0 | 0.00 | 0.28 | 0.18 | 99 | 1011.9 |
| 20260507085637 | 51 | 23 | 1.0 | 2.0 | 0.00 | 0.28 | 0.18 | 99 | 1011.4 |
| 20260507083647 | 51 | 140 | 0.0 | 1.0 | 0.00 | 0.28 | 0.18 | 99 | 1011.2 |
| 20260507082634 | 50 | 114 | 0.0 | 2.0 | 0.00 | 0.28 | 0.18 | 99 | 1011.1 |
| 20260507081634 | 51 | 136 | 0.0 | 2.0 | 0.00 | 0.28 | 0.18 | 99 | 1011.1 |
| 20260507080635 | 51 | 109 | 0.0 | 2.0 | 0.00 | 0.28 | 0.18 | 99 | 1011.2 |
| 20260507074634 | 51 | 119 | 0.0 | 2.0 | 0.00 | 0.28 | 0.18 | 99 | 1011.1 |
| 20260507073634 | 50 | 37 | 0.0 | 2.0 | 0.00 | 0.28 | 0.18 | 99 | 1010.8 |
| 20260507072633 | 50 | 140 | 0.0 | 3.0 | 0.00 | 0.28 | 0.18 | 99 | 1010.7 |
| 20260507065648 | 50 | 153 | 0.0 | 2.0 | 0.03 | 0.25 | 0.18 | 99 | 1010.4 |
| 20260507064637 | 50 | 123 | 0.0 | 3.0 | 0.03 | 0.25 | 0.18 | 99 | 1010.2 |
| 20260507061634 | 51 | 114 | 0.0 | 1.0 | 0.03 | 0.25 | 0.18 | 99 | 1009.4 |
| 20260507060637 | 51 | 100 | 0.0 | 3.0 | 0.00 | 0.25 | 0.15 | 99 | 1009.7 |
| 20260507055635 | 51 | 157 | 0.0 | 3.0 | 0.00 | 0.25 | 0.15 | 99 | 1009.8 |
| 20260507054634 | 51 | 141 | 0.0 | 1.0 | 0.00 | 0.25 | 0.15 | 99 | 1009.7 |
| 20260507053635 | 51 | 92 | 0.0 | 1.0 | 0.00 | 0.25 | 0.15 | 99 | 1009.6 |
| 20260507052635 | 52 | 153 | 2.0 | 3.0 | 0.00 | 0.25 | 0.15 | 99 | 1009.2 |
| 20260507051636 | 52 | 142 | 0.0 | 2.0 | 0.00 | 0.25 | 0.15 | 99 | 1009.1 |
| 20260507045636 | 53 | 148 | 1.0 | 4.0 | 0.00 | 0.25 | 0.15 | 99 | 1009.1 |
| 20260507044635 | 54 | 135 | 0.0 | 0.0 | 0.00 | 0.25 | 0.15 | 99 | 1008.9 |
| 20260507043635 | 54 | 141 | 0.0 | 1.0 | 0.00 | 0.25 | 0.15 | 99 | 1008.7 |
| 20260507040636 | 55 | 155 | 0.0 | 0.0 | 0.01 | 0.25 | 0.15 | 99 | 1008.4 |
| 20260507035634 | 55 | 147 | 0.0 | 0.0 | 0.01 | 0.24 | 0.15 | 99 | 1008.0 |
| 20260507034625 | 54 | 131 | 0.0 | 1.0 | 0.02 | 0.24 | 0.15 | 99 | 1008.0 |
| 20260507033623 | 54 | 128 | 0.0 | 0.0 | 0.02 | 0.24 | 0.15 | 99 | 1007.7 |
| 20260507032623 | 54 | 135 | 0.0 | 0.0 | 0.01 | 0.24 | 0.14 | 99 | 1007.9 |
| 20260507031626 | 54 | 144 | 0.0 | 1.0 | 0.01 | 0.24 | 0.14 | 99 | 1007.8 |
| 20260507030624 | 55 | 157 | 0.0 | 2.0 | 0.01 | 0.24 | 0.14 | 99 | 1007.8 |
| 20260507025625 | 55 | 137 | 0.0 | 1.0 | 0.01 | 0.23 | 0.14 | 99 | 1007.9 |
| 20260507024623 | 55 | 235 | 0.0 | 2.0 | 0.00 | 0.23 | 0.13 | 99 | 1007.8 |
| 20260507023626 | 55 | 137 | 0.0 | 0.0 | 0.00 | 0.23 | 0.13 | 99 | 1007.4 |
| 20260507022624 | 55 | 153 | 0.0 | 2.0 | 0.00 | 0.23 | 0.13 | 99 | 1007.8 |
| 20260507020624 | 55 | 247 | 1.0 | 3.0 | 0.00 | 0.23 | 0.13 | 99 | 1007.5 |
| 20260507015624 | 55 | 141 | 0.0 | 2.0 | 0.00 | 0.23 | 0.13 | 99 | 1007.2 |
| 20260507014624 | 55 | 143 | 0.0 | 4.0 | 0.00 | 0.23 | 0.13 | 99 | 1007.4 |
| 20260507013624 | 55 | 275 | 2.0 | 2.0 | 0.00 | 0.23 | 0.13 | 99 | 1007.2 |
| 20260507012624 | 55 | 140 | 0.0 | 1.0 | 0.00 | 0.23 | 0.13 | 99 | 1007.1 |
| 20260507010624 | 55 | 145 | 0.0 | 1.0 | 0.00 | 0.23 | 0.13 | 99 | 1007.3 |
| 20260507005610 | 55 | 138 | 0.0 | 1.0 | 0.00 | 0.23 | 0.13 | 99 | 1006.9 |
| 20260507004610 | 55 | 127 | 0.0 | 1.0 | 0.00 | 0.23 | 0.13 | 99 | 1006.7 |
| 20260507002611 | 55 | 131 | 0.0 | 2.0 | 0.01 | 0.23 | 0.13 | 99 | 1007.1 |
| 20260507000610 | 56 | 135 | 0.0 | 2.0 | 0.06 | 0.23 | 0.13 | 99 | 1007.3 |
| 20260506233610 | 56 | 150 | 0.0 | 2.0 | 0.12 | 0.15 | 0.12 | 99 | 1007.6 |